DW9112 Weather Reports


time (UTC)temp
C
wind
direction
speed
KPH
gust
KPH
rain 1hr
cm
rain 24hr
cm
rain mn
cm
humidity
%
barometer
mb
20260510150139 27 294 4.8 12.9 0.00 1.65 0.00 81 1016.4
20260510144635 27 190 6.4 16.1 0.00 1.65 0.00 84 1016.1
20260510143131 27 207 4.8 14.5 0.00 1.65 0.00 85 1016.2
20260510141625 26 229 3.2 11.3 0.00 1.65 0.00 87 1016.1
20260510140122 25 234 6.4 12.9 0.00 1.65 0.00 88 1016.1
20260510134623 25 164 3.2 9.7 0.00 1.65 0.00 91 1016.1
20260510133120 23 165 1.6 12.9 0.00 1.65 0.00 94 1015.9
20260510131627 23 159 0.0 3.2 0.00 1.65 0.00 94 1015.8
20260510130124 22 157 0.0 0.0 0.00 1.65 0.00 94 1015.9
20260510124645 22 157 0.0 0.0 0.00 1.65 0.00 94 1015.7
20260510123120 22 157 0.0 0.0 0.00 1.65 0.00 94 1015.4
20260510121620 21 157 0.0 0.0 0.00 1.65 0.00 94 1015.2
20260510120121 21 157 0.0 0.0 0.00 1.65 0.00 94 1015.2
20260510114628 21 157 0.0 0.0 0.00 1.65 0.00 94 1015.0
20260510113123 20 157 0.0 0.0 0.00 1.65 0.00 94 1014.7
20260510111640 20 157 0.0 0.0 0.00 1.65 0.00 94 1014.5
20260510110133 20 157 0.0 0.0 0.00 1.65 0.00 94 1014.4
20260510104638 20 157 0.0 0.0 0.00 1.65 0.00 94 1014.1
20260510103135 20 157 0.0 0.0 0.00 1.65 0.00 94 1013.9
20260510101630 20 157 0.0 0.0 0.00 1.65 0.00 94 1013.7
20260510100127 21 157 0.0 0.0 0.00 1.65 0.00 94 1013.5
20260510094622 21 157 0.0 0.0 0.00 1.65 0.00 94 1013.4
20260510093122 21 157 0.0 0.0 0.00 1.65 0.00 94 1013.4
20260510091641 21 157 0.0 0.0 0.00 1.65 0.00 94 1013.3
20260510090137 21 157 0.0 0.0 0.00 1.65 0.00 94 1013.1
20260510084633 21 157 0.0 0.0 0.00 1.65 0.00 94 1012.8
20260510083123 21 157 0.0 0.0 0.00 1.65 0.00 94 1012.7
20260510081624 21 157 0.0 0.0 0.00 1.65 0.00 94 1012.7
20260510080136 21 157 0.0 0.0 0.00 1.65 0.00 94 1012.6
20260510074634 21 157 0.0 0.0 0.00 1.65 0.00 94 1012.5
20260510073132 21 157 0.0 4.8 0.00 1.65 0.00 94 1012.6
20260510071630 21 156 0.0 9.7 0.00 1.65 0.00 94 1012.6
20260510070141 21 160 1.6 8.0 0.00 1.65 0.00 94 1012.5
20260510064639 21 166 1.6 8.0 0.00 1.65 0.00 94 1012.6
20260510063139 21 165 1.6 8.0 0.00 1.65 0.00 94 1012.7
20260510061631 21 159 0.0 6.4 0.00 1.65 0.00 93 1012.9
20260510060124 21 128 0.0 3.2 0.00 1.65 0.00 94 1013.1
20260510054631 21 128 0.0 3.2 0.00 1.65 0.00 94 1013.3
20260510053125 21 128 0.0 4.8 0.00 1.65 0.00 94 1013.7
20260510051626 21 57 0.0 0.0 0.00 1.65 0.00 93 1013.9
20260510050123 21 57 0.0 0.0 0.00 1.65 0.00 92 1014.1
20260510044622 21 57 0.0 0.0 0.00 1.65 0.00 92 1014.4
20260510043139 21 57 0.0 0.0 0.00 1.65 0.00 92 1014.6
20260510041622 21 57 0.0 0.0 0.00 1.65 0.00 92 1014.6
20260510040119 21 57 0.0 0.0 0.00 1.65 0.00 92 1014.5
20260510034637 21 57 0.0 0.0 0.00 1.65 1.65 91 1014.5
20260510033133 21 57 0.0 0.0 0.00 1.65 1.65 90 1014.5
20260510031632 21 57 0.0 0.0 0.00 1.65 1.65 90 1014.6
20260510030123 21 57 0.0 0.0 0.00 1.65 1.65 90 1014.7
20260510024634 21 57 0.0 0.0 0.00 1.65 1.65 90 1014.5
20260510023133 21 57 0.0 0.0 0.00 1.65 1.65 90 1014.2
20260510021634 21 57 0.0 0.0 0.00 1.65 1.65 90 1014.2
20260510020127 21 56 0.0 1.6 0.00 1.65 1.65 89 1013.5
20260510014626 21 56 0.0 0.0 0.00 1.65 1.65 89 1013.7
20260510013127 21 56 0.0 3.2 0.00 1.65 1.65 89 1013.7
20260510011623 21 56 0.0 1.6 0.00 1.65 1.65 89 1013.1
20260510010137 21 56 0.0 6.4 0.00 1.65 1.65 89 1012.9
20260510004638 22 56 1.6 4.8 0.00 1.65 1.65 88 1012.9
20260510003137 22 56 1.6 6.4 0.00 1.65 1.65 88 1012.6
20260510001635 22 57 1.6 9.7 0.00 1.65 1.65 88 1012.7
20260510000135 22 348 3.2 12.9 0.00 1.65 1.65 88 1012.9
20260509234632 22 333 6.4 12.9 0.00 1.65 1.65 88 1013.0
20260509233133 22 355 4.8 11.3 0.00 1.65 1.65 88 1013.0
20260509231630 22 321 1.6 8.0 0.00 1.65 1.65 88 1013.1
20260509230130 23 350 4.8 11.3 0.00 1.65 1.65 88 1013.1
20260509224629 23 323 0.0 8.0 0.00 1.65 1.65 88 1013.1
20260509223142 23 321 4.8 9.7 0.00 1.65 1.65 87 1012.8
20260509221640 23 333 0.0 9.7 0.00 1.65 1.65 87 1012.6
20260509220133 23 347 1.6 11.3 0.00 1.65 1.65 87 1012.7
20260509214633 23 349 4.8 11.3 0.00 2.11 1.65 87 1012.6
20260509213133 23 336 4.8 11.3 0.00 2.11 1.65 88 1012.7
20260509211627 23 333 1.6 4.8 0.00 2.11 1.65 88 1012.4
20260509210127 23 319 3.2 11.3 0.00 2.11 1.65 88 1012.2
20260509204639 23 319 3.2 12.9 0.00 2.64 1.65 88 1012.4
20260509203137 24 292 3.2 9.7 0.00 2.64 1.65 89 1012.3
20260509201638 24 288 3.2 11.3 0.03 2.64 1.65 89 1012.3
20260509200134 23 302 6.4 11.3 1.07 2.64 1.65 89 1012.2
20260509194635 23 290 1.6 6.4 1.65 2.77 1.65 89 1012.3
20260509193127 23 290 0.0 6.4 1.65 2.77 1.65 88 1012.3
20260509191641 23 254 4.8 11.3 1.63 2.74 1.63 87 1012.8
20260509190132 25 315 3.2 32.2 0.56 1.68 0.56 84 1012.6
20260509184633 26 360 3.2 8.0 0.00 1.12 0.00 79 1012.0
20260509183126 27 325 3.2 8.0 0.00 1.12 0.00 80 1012.2
20260509181641 26 299 3.2 6.4 0.00 1.12 0.00 80 1012.3
20260509180137 27 335 4.8 9.7 0.00 1.12 0.00 79 1012.5
20260509174631 26 280 0.0 6.4 0.00 1.12 0.00 80 1012.8
20260509173137 26 276 4.8 8.0 0.00 1.12 0.00 80 1013.1
20260509171623 26 277 3.2 9.7 0.00 1.12 0.00 81 1013.1
20260509170138 26 212 0.0 6.4 0.00 1.12 0.00 81 1013.2
20260509164639 26 209 1.6 8.0 0.00 1.12 0.00 81 1013.3
20260509163137 26 221 6.4 11.3 0.00 1.12 0.00 82 1013.3
20260509161636 25 255 0.0 6.4 0.00 1.12 0.00 85 1013.4
20260509160137 25 217 3.2 6.4 0.00 1.12 0.00 85 1013.3
20260509154637 25 217 0.0 4.8 0.00 1.12 0.00 86 1013.0
20260509153135 24 217 3.2 9.7 0.00 1.12 0.00 87 1013.2
20260509151630 24 217 1.6 11.3 0.00 1.12 0.00 88 1013.2